QXE814 KGEG-KSFO

Flight info

Callsign QXE814
Flight time 2h 5m
Altitude 34000
Route KS12I BREWW LMT/N0461F330 RBL MRRLO STLER4
Aircraft E75L/M-SDE3GILORVW/S

Departure

Time 2026-04-20 22:58
Airport Spokane International Airport (KGEG)

Arrival

Time 2026-04-21 01:03
Airport San Francisco International Airport (KSFO)
Time Latitude Longitude Altitude Speed Heading
2026-04-20 22:36 47.62329 -117.53822 2372 ft 0 kts 338°
2026-04-20 22:49 47.62324 -117.53818 2372 ft 4 kts 334°
2026-04-20 22:49 47.62303 -117.53795 2372 ft 4 kts 306°
2026-04-20 22:49 47.62293 -117.53759 2372 ft 4 kts 271°
2026-04-20 22:49 47.62300 -117.53726 2372 ft 2 kts 226°
2026-04-20 22:50 47.62301 -117.53725 2372 ft 0 kts 225°
2026-04-20 22:52 47.62295 -117.53734 2372 ft 3 kts 225°
2026-04-20 22:52 47.62267 -117.53776 2372 ft 7 kts 216°
2026-04-20 22:52 47.62222 -117.53750 2372 ft 9 kts 135°
2026-04-20 22:52 47.62183 -117.53678 2372 ft 9 kts 97°
2026-04-20 22:53 47.62223 -117.53589 2372 ft 13 kts 44°
2026-04-20 22:53 47.62293 -117.53483 2372 ft 16 kts 46°
2026-04-20 22:53 47.62377 -117.53352 2373 ft 19 kts 46°
2026-04-20 22:53 47.62471 -117.53210 2373 ft 20 kts 45°
2026-04-20 22:54 47.62571 -117.53065 2373 ft 20 kts 44°
2026-04-20 22:54 47.62675 -117.52916 2373 ft 21 kts 47°
2026-04-20 22:54 47.62777 -117.52755 2372 ft 21 kts 46°
2026-04-20 22:54 47.62879 -117.52600 2373 ft 21 kts 45°
2026-04-20 22:55 47.62985 -117.52446 2373 ft 22 kts 44°
2026-04-20 22:55 47.63088 -117.52290 2373 ft 19 kts 45°
2026-04-20 22:55 47.63179 -117.52152 2373 ft 18 kts 45°
2026-04-20 22:55 47.63239 -117.52039 2373 ft 11 kts 84°
2026-04-20 22:56 47.63194 -117.51948 2373 ft 12 kts 136°
2026-04-20 22:56 47.63134 -117.51862 2373 ft 10 kts 136°
2026-04-20 22:56 47.63094 -117.51859 2373 ft 5 kts 229°
2026-04-20 22:56 47.63078 -117.51894 2373 ft 2 kts 223°
2026-04-20 22:57 47.63076 -117.51897 2373 ft 6 kts 223°
2026-04-20 22:57 47.62874 -117.52202 2374 ft 76 kts 225°
2026-04-20 22:57 47.62341 -117.53005 2374 ft 140 kts 225°
2026-04-20 22:57 47.61531 -117.54226 2483 ft 185 kts 226°
2026-04-20 22:58 47.60583 -117.55584 3220 ft 194 kts 216°
2026-04-20 22:58 47.59399 -117.56465 4059 ft 185 kts 200°
2026-04-20 22:58 47.58222 -117.57173 4844 ft 180 kts 205°
2026-04-20 22:58 47.57135 -117.57986 5602 ft 173 kts 208°
2026-04-20 22:59 47.56022 -117.58871 5915 ft 190 kts 209°
2026-04-20 22:59 47.54844 -117.59739 6564 ft 188 kts 206°
2026-04-20 22:59 47.53656 -117.60599 7028 ft 195 kts 208°
2026-04-20 22:59 47.52437 -117.61546 7508 ft 199 kts 209°
2026-04-20 23:00 47.51189 -117.62527 7932 ft 206 kts 209°
2026-04-20 23:00 47.49890 -117.63518 8373 ft 215 kts 208°
2026-04-20 23:00 47.48501 -117.64547 8689 ft 233 kts 207°
2026-04-20 23:00 47.46985 -117.65633 9074 ft 249 kts 207°
2026-04-20 23:01 47.45419 -117.66729 9846 ft 246 kts 206°
2026-04-20 23:01 47.43878 -117.67750 10588 ft 244 kts 207°
2026-04-20 23:01 47.42292 -117.68931 10769 ft 265 kts 210°
2026-04-20 23:01 47.40602 -117.70231 11024 ft 282 kts 209°
2026-04-20 23:02 47.38803 -117.71592 11271 ft 299 kts 209°
2026-04-20 23:02 47.36941 -117.72988 11679 ft 308 kts 208°
2026-04-20 23:02 47.35022 -117.74416 12303 ft 309 kts 208°
2026-04-20 23:02 47.33100 -117.75842 13003 ft 309 kts 208°
2026-04-20 23:03 47.31177 -117.77268 13724 ft 309 kts 209°
2026-04-20 23:03 47.29250 -117.78694 14340 ft 311 kts 208°
2026-04-20 23:03 47.27311 -117.80128 14943 ft 313 kts 208°
2026-04-20 23:03 47.25356 -117.81568 15560 ft 316 kts 208°
2026-04-20 23:04 47.23386 -117.83020 16171 ft 318 kts 208°
2026-04-20 23:04 47.21397 -117.84483 16765 ft 321 kts 208°
2026-04-20 23:04 47.19391 -117.85956 17382 ft 324 kts 207°
2026-04-20 23:04 47.17367 -117.87441 18008 ft 327 kts 207°
2026-04-20 23:05 47.15325 -117.88938 18571 ft 329 kts 207°
2026-04-20 23:05 47.13267 -117.90444 19185 ft 331 kts 207°
2026-04-20 23:05 47.11200 -117.91956 19804 ft 333 kts 207°
2026-04-20 23:05 47.09115 -117.93479 20419 ft 336 kts 207°
2026-04-20 23:06 47.07012 -117.95014 21001 ft 339 kts 207°
2026-04-20 23:06 47.04887 -117.96561 21564 ft 342 kts 207°
2026-04-20 23:06 47.02746 -117.98120 22124 ft 345 kts 207°
2026-04-20 23:06 47.00588 -117.99690 22655 ft 348 kts 208°
2026-04-20 23:07 46.98506 -118.01520 23159 ft 350 kts 214°
2026-04-20 23:07 46.96490 -118.03544 23653 ft 353 kts 215°
2026-04-20 23:07 46.94473 -118.05604 24124 ft 355 kts 215°
2026-04-20 23:07 46.92438 -118.07668 24607 ft 357 kts 215°
2026-04-20 23:08 46.90395 -118.09726 25135 ft 357 kts 215°
2026-04-20 23:08 46.88337 -118.11793 25630 ft 359 kts 215°
2026-04-20 23:08 46.86268 -118.13864 26125 ft 361 kts 216°
2026-04-20 23:08 46.84192 -118.15942 26578 ft 364 kts 216°
2026-04-20 23:09 46.82101 -118.18031 27040 ft 364 kts 216°
2026-04-20 23:09 46.80005 -118.20124 27478 ft 366 kts 216°
2026-04-20 23:09 46.77895 -118.22227 27874 ft 368 kts 216°
2026-04-20 23:09 46.75776 -118.24338 28279 ft 370 kts 216°
2026-04-20 23:10 46.73643 -118.26460 28676 ft 372 kts 217°
2026-04-20 23:10 46.71504 -118.28587 29060 ft 373 kts 217°
2026-04-20 23:10 46.69351 -118.30724 29497 ft 374 kts 217°
2026-04-20 23:10 46.67202 -118.32856 29934 ft 374 kts 217°
2026-04-20 23:11 46.65048 -118.34990 30279 ft 375 kts 217°
2026-04-20 23:11 46.62888 -118.37128 30630 ft 376 kts 217°
2026-04-20 23:11 46.60754 -118.39238 30971 ft 376 kts 217°
2026-04-20 23:11 46.58588 -118.41378 31303 ft 377 kts 217°
2026-04-20 23:12 46.56415 -118.43523 31559 ft 379 kts 217°
2026-04-20 23:12 46.54237 -118.45671 31889 ft 378 kts 217°
2026-04-20 23:12 46.52059 -118.47815 32193 ft 378 kts 217°
2026-04-20 23:12 46.49886 -118.49953 32594 ft 376 kts 217°
2026-04-20 23:13 46.47731 -118.52070 33029 ft 373 kts 217°
2026-04-20 23:13 46.45599 -118.54162 33546 ft 367 kts 217°
2026-04-20 23:13 46.43494 -118.56226 33905 ft 365 kts 217°
2026-04-20 23:13 46.41368 -118.58313 33878 ft 373 kts 217°
2026-04-20 23:14 46.37006 -118.62589 33902 ft 383 kts 217°
2026-04-20 23:14 46.32556 -118.66941 33882 ft 388 kts 217°
2026-04-20 23:15 46.28838 -118.70568 33815 ft 387 kts 217°
2026-04-20 23:15 46.24368 -118.74923 33812 ft 388 kts 217°
2026-04-20 23:16 46.19891 -118.79276 33818 ft 389 kts 217°
2026-04-20 23:16 46.15390 -118.83642 33815 ft 390 kts 217°
2026-04-20 23:17 46.10894 -118.87996 33816 ft 389 kts 217°
2026-04-20 23:17 46.06396 -118.92344 33813 ft 389 kts 217°
2026-04-20 23:18 46.01901 -118.96680 33804 ft 387 kts 216°
2026-04-20 23:18 45.97427 -119.00988 33814 ft 387 kts 216°
2026-04-20 23:19 45.92945 -119.05293 33815 ft 388 kts 216°
2026-04-20 23:19 45.88461 -119.09593 33831 ft 388 kts 216°
2026-04-20 23:20 45.83965 -119.13894 33823 ft 388 kts 216°
2026-04-20 23:20 45.79478 -119.18178 33820 ft 386 kts 216°
2026-04-20 23:21 45.75002 -119.22446 33829 ft 387 kts 216°
2026-04-20 23:21 45.70521 -119.26709 33820 ft 387 kts 216°
2026-04-20 23:22 45.66068 -119.30939 33829 ft 387 kts 216°
2026-04-20 23:22 45.61580 -119.35190 33823 ft 387 kts 216°
2026-04-20 23:23 45.57106 -119.39435 33827 ft 386 kts 216°
2026-04-20 23:23 45.52633 -119.43676 33829 ft 386 kts 216°
2026-04-20 23:24 45.48160 -119.47900 33840 ft 385 kts 216°
2026-04-20 23:24 45.43681 -119.52120 33837 ft 386 kts 216°
2026-04-20 23:25 45.39201 -119.56330 33851 ft 386 kts 216°
2026-04-20 23:25 45.34732 -119.60521 33830 ft 384 kts 215°
2026-04-20 23:26 45.30262 -119.64701 33830 ft 385 kts 215°
2026-04-20 23:26 45.25774 -119.68895 33832 ft 388 kts 215°
2026-04-20 23:27 45.21275 -119.73096 33830 ft 387 kts 215°
2026-04-20 23:27 45.16771 -119.77292 33822 ft 388 kts 214°
2026-04-20 23:28 45.12276 -119.81463 33824 ft 386 kts 214°
2026-04-20 23:28 45.07773 -119.85625 33823 ft 387 kts 214°
2026-04-20 23:29 45.03259 -119.89775 33819 ft 387 kts 214°
2026-04-20 23:29 44.98777 -119.93902 33800 ft 387 kts 214°
2026-04-20 23:30 44.94232 -119.98107 33809 ft 386 kts 214°
2026-04-20 23:30 44.89774 -120.02252 33803 ft 387 kts 214°
2026-04-20 23:31 44.85279 -120.06402 33808 ft 387 kts 214°
2026-04-20 23:31 44.80764 -120.10549 33805 ft 386 kts 214°
2026-04-20 23:32 44.76252 -120.14679 33809 ft 387 kts 213°
2026-04-20 23:32 44.71755 -120.18778 33796 ft 383 kts 213°
2026-04-20 23:33 44.67280 -120.22867 33803 ft 383 kts 213°
2026-04-20 23:33 44.62801 -120.26950 33800 ft 383 kts 213°
2026-04-20 23:34 44.58320 -120.31013 33809 ft 384 kts 213°
2026-04-20 23:34 44.53830 -120.35085 33829 ft 385 kts 213°
2026-04-20 23:35 44.47147 -120.41121 33812 ft 382 kts 212°
2026-04-20 23:36 44.42684 -120.45144 33804 ft 382 kts 212°
2026-04-20 23:36 44.38208 -120.49168 33817 ft 384 kts 212°
2026-04-20 23:37 44.33718 -120.53203 33820 ft 384 kts 212°
2026-04-20 23:37 44.29244 -120.57213 33812 ft 381 kts 212°
2026-04-20 23:38 44.24788 -120.61219 33821 ft 381 kts 212°
2026-04-20 23:38 44.20315 -120.65219 33810 ft 382 kts 212°
2026-04-20 23:39 44.15853 -120.69198 33819 ft 382 kts 212°
2026-04-20 23:39 44.11377 -120.73186 33814 ft 382 kts 212°
2026-04-20 23:40 44.06891 -120.77184 33821 ft 385 kts 212°
2026-04-20 23:40 44.02382 -120.81185 33814 ft 384 kts 212°
2026-04-20 23:40 44.00014 -120.82881 33822 ft 385 kts 201°
2026-04-20 23:41 43.97488 -120.84115 33837 ft 385 kts 201°
2026-04-20 23:41 43.92445 -120.86631 33813 ft 385 kts 201°
2026-04-20 23:42 43.87444 -120.89137 33816 ft 383 kts 201°
2026-04-20 23:42 43.82425 -120.91655 33835 ft 385 kts 201°
2026-04-20 23:43 43.77381 -120.94186 33824 ft 386 kts 201°
2026-04-20 23:43 43.72331 -120.96715 33828 ft 386 kts 201°
2026-04-20 23:44 43.67286 -120.99237 33827 ft 385 kts 200°
2026-04-20 23:44 43.62251 -121.01750 33821 ft 383 kts 200°
2026-04-20 23:45 43.57246 -121.04244 33842 ft 384 kts 200°
2026-04-20 23:45 43.52220 -121.06746 33834 ft 384 kts 200°
2026-04-20 23:46 43.47228 -121.09226 33831 ft 384 kts 200°
2026-04-20 23:46 43.42201 -121.11719 33833 ft 384 kts 200°
2026-04-20 23:47 43.37175 -121.14206 33833 ft 383 kts 199°
2026-04-20 23:47 43.32158 -121.16685 33843 ft 385 kts 200°
2026-04-20 23:48 43.27118 -121.19171 33837 ft 385 kts 200°
2026-04-20 23:48 43.22076 -121.21653 33832 ft 385 kts 200°
2026-04-20 23:49 43.17037 -121.24130 33823 ft 385 kts 200°
2026-04-20 23:49 43.11994 -121.26604 33836 ft 384 kts 199°
2026-04-20 23:50 43.06986 -121.29057 33841 ft 387 kts 199°
2026-04-20 23:50 43.01919 -121.31534 33828 ft 386 kts 199°
2026-04-20 23:51 42.96856 -121.34005 33836 ft 386 kts 199°
2026-04-20 23:51 42.91795 -121.36470 33858 ft 387 kts 199°
2026-04-20 23:52 42.86756 -121.38920 33847 ft 382 kts 199°
2026-04-20 23:52 42.81743 -121.41355 33849 ft 384 kts 199°
2026-04-20 23:53 42.76709 -121.43794 33855 ft 384 kts 199°
2026-04-20 23:53 42.71676 -121.46230 33852 ft 384 kts 199°
2026-04-20 23:54 42.66677 -121.48646 33872 ft 384 kts 199°
2026-04-20 23:54 42.61660 -121.51065 33865 ft 382 kts 198°
2026-04-20 23:55 42.56641 -121.53480 33866 ft 383 kts 198°
2026-04-20 23:55 42.51612 -121.55896 33864 ft 384 kts 198°
2026-04-20 23:56 42.46582 -121.58309 33871 ft 383 kts 198°
2026-04-20 23:56 42.41552 -121.60719 33874 ft 384 kts 198°
2026-04-20 23:57 42.36557 -121.63106 33860 ft 380 kts 198°
2026-04-20 23:57 42.31540 -121.65501 33871 ft 383 kts 198°
2026-04-20 23:58 42.26521 -121.67893 33871 ft 382 kts 198°
2026-04-20 23:58 42.21500 -121.70280 33884 ft 383 kts 198°
2026-04-20 23:59 42.16477 -121.72664 33905 ft 380 kts 197°
2026-04-20 23:59 42.11330 -121.74147 33926 ft 379 kts 191°
2026-04-21 00:00 42.06155 -121.75495 33919 ft 379 kts 191°
2026-04-21 00:00 42.01011 -121.76819 33919 ft 379 kts 191°
2026-04-21 00:01 41.95835 -121.78144 33934 ft 379 kts 190°
2026-04-21 00:01 41.90651 -121.79464 33920 ft 379 kts 190°
2026-04-21 00:02 41.85453 -121.80784 33921 ft 381 kts 190°
2026-04-21 00:02 41.80254 -121.82101 33939 ft 380 kts 190°
2026-04-21 00:03 41.75052 -121.83416 33931 ft 380 kts 190°
2026-04-21 00:03 41.69856 -121.84728 33924 ft 380 kts 190°
2026-04-21 00:04 41.64619 -121.86048 33984 ft 385 kts 190°
2026-04-21 00:04 41.59346 -121.87375 33987 ft 386 kts 190°
2026-04-21 00:05 41.54064 -121.88702 33987 ft 386 kts 190°
2026-04-21 00:05 41.48788 -121.90024 33985 ft 386 kts 190°
2026-04-21 00:06 41.43494 -121.91349 34009 ft 387 kts 190°
2026-04-21 00:06 41.38210 -121.92671 33989 ft 386 kts 190°
2026-04-21 00:07 41.32993 -121.93972 34021 ft 381 kts 190°
2026-04-21 00:07 41.27781 -121.95271 34019 ft 381 kts 190°
2026-04-21 00:08 41.22565 -121.96568 34009 ft 381 kts 190°
2026-04-21 00:08 41.18231 -121.97645 34013 ft 382 kts 190°
2026-04-21 00:09 41.13029 -121.98934 34009 ft 380 kts 190°
2026-04-21 00:09 41.06931 -122.00444 34027 ft 381 kts 189°
2026-04-21 00:10 41.02596 -122.01515 34000 ft 384 kts 189°
2026-04-21 00:10 40.97343 -122.02811 33994 ft 384 kts 189°
2026-04-21 00:11 40.92091 -122.04104 34001 ft 383 kts 189°
2026-04-21 00:11 40.86849 -122.05394 34025 ft 384 kts 189°
2026-04-21 00:12 40.81604 -122.06683 33998 ft 385 kts 189°
2026-04-21 00:12 40.76452 -122.07949 33778 ft 364 kts 189°
2026-04-21 00:12 40.73994 -122.08554 33359 ft 355 kts 189°
2026-04-21 00:13 40.71586 -122.09147 32904 ft 348 kts 189°
2026-04-21 00:13 40.66863 -122.10301 33024 ft 351 kts 189°
2026-04-21 00:14 40.61949 -122.11500 33000 ft 367 kts 189°
2026-04-21 00:14 40.56864 -122.12738 32982 ft 375 kts 189°
2026-04-21 00:15 40.51715 -122.13991 32994 ft 381 kts 189°
2026-04-21 00:15 40.46476 -122.15265 32979 ft 384 kts 189°
2026-04-21 00:16 40.41222 -122.16529 32988 ft 386 kts 189°
2026-04-21 00:16 40.35924 -122.17800 32988 ft 387 kts 189°
2026-04-21 00:17 40.30694 -122.19057 33001 ft 380 kts 189°
2026-04-21 00:17 40.25493 -122.20310 33000 ft 380 kts 189°
2026-04-21 00:18 40.20289 -122.21563 33000 ft 380 kts 190°
2026-04-21 00:18 40.15081 -122.22815 32998 ft 380 kts 190°
2026-04-21 00:19 40.09876 -122.24065 32999 ft 380 kts 190°
2026-04-21 00:19 40.04700 -122.25507 33018 ft 381 kts 191°
2026-04-21 00:20 39.99528 -122.26988 33018 ft 381 kts 191°
2026-04-21 00:20 39.94355 -122.28459 33014 ft 380 kts 191°
2026-04-21 00:21 39.89179 -122.29926 33006 ft 381 kts 191°
2026-04-21 00:21 39.84006 -122.31387 33009 ft 380 kts 191°
2026-04-21 00:22 39.78826 -122.32847 32995 ft 382 kts 192°
2026-04-21 00:22 39.73639 -122.34305 32988 ft 381 kts 192°
2026-04-21 00:23 39.68472 -122.35758 33005 ft 377 kts 191°
2026-04-21 00:23 39.63372 -122.37188 32994 ft 377 kts 191°
2026-04-21 00:24 39.58230 -122.38627 32980 ft 380 kts 191°
2026-04-21 00:24 39.53069 -122.40070 32977 ft 379 kts 191°
2026-04-21 00:25 39.47918 -122.41508 32971 ft 379 kts 191°
2026-04-21 00:25 39.42761 -122.42945 32969 ft 379 kts 191°
2026-04-21 00:26 39.37608 -122.44380 32969 ft 380 kts 191°
2026-04-21 00:26 39.32437 -122.45817 32972 ft 380 kts 191°
2026-04-21 00:27 39.27271 -122.47249 32968 ft 380 kts 192°
2026-04-21 00:27 39.22104 -122.48681 32964 ft 380 kts 192°
2026-04-21 00:28 39.16936 -122.50111 32977 ft 381 kts 192°
2026-04-21 00:28 39.11744 -122.51544 32959 ft 382 kts 192°
2026-04-21 00:29 39.06552 -122.52974 32958 ft 381 kts 192°
2026-04-21 00:29 39.01367 -122.54403 32962 ft 381 kts 192°
2026-04-21 00:30 38.96186 -122.55830 32974 ft 381 kts 192°
2026-04-21 00:30 38.90986 -122.57257 32957 ft 383 kts 192°
2026-04-21 00:30 38.88426 -122.57963 32757 ft 378 kts 192°
2026-04-21 00:31 38.85918 -122.58702 32506 ft 361 kts 192°
2026-04-21 00:31 38.83516 -122.59405 32146 ft 349 kts 193°
2026-04-21 00:31 38.81165 -122.60094 31645 ft 343 kts 193°
2026-04-21 00:31 38.78860 -122.60766 31171 ft 337 kts 193°
2026-04-21 00:32 38.76589 -122.61430 30739 ft 333 kts 193°
2026-04-21 00:32 38.74337 -122.62085 30339 ft 332 kts 193°
2026-04-21 00:32 38.72089 -122.62740 29803 ft 330 kts 193°
2026-04-21 00:32 38.69858 -122.63390 29425 ft 329 kts 193°
2026-04-21 00:33 38.67613 -122.64041 28964 ft 332 kts 193°
2026-04-21 00:33 38.65355 -122.64697 28533 ft 334 kts 193°
2026-04-21 00:33 38.63079 -122.65357 28077 ft 336 kts 193°
2026-04-21 00:33 38.60796 -122.66015 27697 ft 337 kts 193°
2026-04-21 00:34 38.58503 -122.66657 27285 ft 337 kts 193°
2026-04-21 00:34 38.56223 -122.67298 26913 ft 335 kts 193°
2026-04-21 00:34 38.53957 -122.67932 26523 ft 333 kts 193°
2026-04-21 00:34 38.51692 -122.68568 26151 ft 333 kts 193°
2026-04-21 00:35 38.49439 -122.69201 25772 ft 331 kts 193°
2026-04-21 00:35 38.47197 -122.69829 25401 ft 329 kts 193°
2026-04-21 00:35 38.44969 -122.70455 25019 ft 327 kts 193°
2026-04-21 00:35 38.42752 -122.71077 24652 ft 325 kts 193°
2026-04-21 00:36 38.40546 -122.71695 24290 ft 324 kts 193°
2026-04-21 00:36 38.38349 -122.72310 23925 ft 323 kts 193°
2026-04-21 00:36 38.36164 -122.72922 23562 ft 321 kts 193°
2026-04-21 00:36 38.33985 -122.73531 23168 ft 319 kts 193°
2026-04-21 00:37 38.31829 -122.74134 22826 ft 317 kts 193°
2026-04-21 00:37 38.29680 -122.74735 22465 ft 316 kts 193°
2026-04-21 00:37 38.27538 -122.75332 22110 ft 315 kts 192°
2026-04-21 00:37 38.25404 -122.75928 21752 ft 313 kts 192°
2026-04-21 00:38 38.23272 -122.76461 21343 ft 312 kts 186°
2026-04-21 00:38 38.21115 -122.76203 21019 ft 313 kts 171°
2026-04-21 00:38 38.18992 -122.75595 20603 ft 314 kts 171°
2026-04-21 00:38 38.16862 -122.75013 20166 ft 312 kts 171°
2026-04-21 00:39 38.14753 -122.74415 19749 ft 309 kts 170°
2026-04-21 00:39 38.12662 -122.73819 19330 ft 307 kts 170°
2026-04-21 00:39 38.10580 -122.73222 18943 ft 306 kts 170°
2026-04-21 00:39 38.08513 -122.72631 18519 ft 303 kts 170°
2026-04-21 00:40 38.06464 -122.72040 18106 ft 301 kts 170°
2026-04-21 00:40 38.04435 -122.71465 17720 ft 297 kts 170°
2026-04-21 00:40 38.02422 -122.70896 17314 ft 296 kts 170°
2026-04-21 00:40 38.00418 -122.70329 16959 ft 294 kts 170°
2026-04-21 00:41 37.98427 -122.69759 16539 ft 293 kts 170°
2026-04-21 00:41 37.96450 -122.69192 16144 ft 290 kts 169°
2026-04-21 00:41 37.94488 -122.68627 15777 ft 289 kts 170°
2026-04-21 00:41 37.92531 -122.68066 15399 ft 287 kts 170°
2026-04-21 00:42 37.90612 -122.67385 14999 ft 288 kts 161°
2026-04-21 00:42 37.88925 -122.66068 14646 ft 291 kts 148°
2026-04-21 00:42 37.87374 -122.64461 14222 ft 285 kts 147°
2026-04-21 00:42 37.85849 -122.62868 13854 ft 277 kts 148°
2026-04-21 00:43 37.84404 -122.61359 13460 ft 269 kts 147°
2026-04-21 00:43 37.82983 -122.59875 13155 ft 261 kts 147°
2026-04-21 00:43 37.81588 -122.58424 12845 ft 259 kts 147°
2026-04-21 00:43 37.80202 -122.56966 12520 ft 260 kts 147°
2026-04-21 00:44 37.78813 -122.55505 12211 ft 260 kts 148°
2026-04-21 00:44 37.77418 -122.54033 11908 ft 262 kts 148°
2026-04-21 00:44 37.76016 -122.52554 11597 ft 263 kts 148°
2026-04-21 00:45 37.73218 -122.49597 11162 ft 260 kts 148°
2026-04-21 00:45 37.71832 -122.48125 11099 ft 260 kts 148°
2026-04-21 00:45 37.70443 -122.46650 11038 ft 262 kts 148°
2026-04-21 00:45 37.69048 -122.45164 10998 ft 262 kts 148°
2026-04-21 00:46 37.67651 -122.43683 10996 ft 262 kts 148°
2026-04-21 00:46 37.66250 -122.42195 11001 ft 264 kts 148°
2026-04-21 00:46 37.64845 -122.40703 10992 ft 264 kts 148°
2026-04-21 00:46 37.63445 -122.39215 10968 ft 263 kts 149°
2026-04-21 00:47 37.62018 -122.37707 10467 ft 272 kts 150°
2026-04-21 00:47 37.60401 -122.36558 9785 ft 265 kts 167°
2026-04-21 00:47 37.58686 -122.35693 9110 ft 270 kts 161°
2026-04-21 00:47 37.56988 -122.34530 8147 ft 283 kts 158°
2026-04-21 00:48 37.55318 -122.33215 7454 ft 291 kts 144°
2026-04-21 00:48 37.54239 -122.31041 7509 ft 286 kts 118°
2026-04-21 00:48 37.53716 -122.28715 8524 ft 264 kts 111°
2026-04-21 00:48 37.53244 -122.26694 9711 ft 235 kts 128°
2026-04-21 00:49 37.52251 -122.25050 8851 ft 248 kts 144°
2026-04-21 00:49 37.50927 -122.23512 8018 ft 264 kts 146°
2026-04-21 00:49 37.49541 -122.21944 7352 ft 271 kts 146°
2026-04-21 00:49 37.48106 -122.20370 6680 ft 276 kts 145°
2026-04-21 00:50 37.46631 -122.18794 5991 ft 280 kts 146°
2026-04-21 00:50 37.45161 -122.17250 5808 ft 265 kts 146°
2026-04-21 00:50 37.43796 -122.15808 5778 ft 248 kts 146°
2026-04-21 00:50 37.42525 -122.14438 5700 ft 235 kts 146°
2026-04-21 00:51 37.41311 -122.13108 5513 ft 228 kts 146°
2026-04-21 00:51 37.40146 -122.11792 5308 ft 224 kts 140°
2026-04-21 00:51 37.39221 -122.10211 5125 ft 223 kts 131°
2026-04-21 00:51 37.38359 -122.08605 4948 ft 220 kts 131°
2026-04-21 00:52 37.37518 -122.07000 4771 ft 218 kts 131°
2026-04-21 00:52 37.36686 -122.05410 4593 ft 217 kts 130°
2026-04-21 00:52 37.36002 -122.03702 4407 ft 222 kts 117°
2026-04-21 00:52 37.35534 -122.01841 4232 ft 223 kts 115°
2026-04-21 00:53 37.35073 -121.99980 4074 ft 223 kts 114°
2026-04-21 00:53 37.34608 -121.98147 4004 ft 214 kts 115°
2026-04-21 00:53 37.34421 -121.96269 4000 ft 229 kts 84°
2026-04-21 00:53 37.35145 -121.94475 4031 ft 244 kts 48°
2026-04-21 00:54 37.36614 -121.93411 4024 ft 248 kts 11°
2026-04-21 00:54 37.38323 -121.93330 4059 ft 248 kts 355°
2026-04-21 00:54 37.40065 -121.93367 4088 ft 252 kts 357°
2026-04-21 00:54 37.41812 -121.93398 4091 ft 250 kts 357°
2026-04-21 00:55 37.43563 -121.93424 4015 ft 253 kts 356°
2026-04-21 00:55 37.45310 -121.93528 4004 ft 248 kts 345°
2026-04-21 00:55 37.46794 -121.94458 3993 ft 234 kts 309°
2026-04-21 00:55 37.47551 -121.96168 3990 ft 218 kts 271°
2026-04-21 00:56 37.47583 -121.98032 4041 ft 212 kts 262°
2026-04-21 00:56 37.47536 -121.99888 3996 ft 212 kts 261°
2026-04-21 00:56 37.47481 -122.01729 3964 ft 206 kts 261°
2026-04-21 00:56 37.47734 -122.03451 3969 ft 201 kts 288°
2026-04-21 00:57 37.48461 -122.04955 4026 ft 202 kts 292°
2026-04-21 00:57 37.49093 -122.06478 3976 ft 192 kts 286°
2026-04-21 00:57 37.49690 -122.07977 3955 ft 192 kts 289°
2026-04-21 00:57 37.50342 -122.09459 3947 ft 193 kts 289°
2026-04-21 00:58 37.50961 -122.10943 3998 ft 187 kts 288°
2026-04-21 00:58 37.51571 -122.12407 4052 ft 190 kts 288°
2026-04-21 00:58 37.51983 -122.13385 4025 ft 193 kts 289°
2026-04-21 00:58 37.52616 -122.14881 3751 ft 192 kts 289°
2026-04-21 00:59 37.53239 -122.16359 3478 ft 190 kts 289°
2026-04-21 00:59 37.53858 -122.17829 3219 ft 190 kts 289°
2026-04-21 00:59 37.54475 -122.19297 2959 ft 190 kts 288°
2026-04-21 00:59 37.55092 -122.20765 2708 ft 189 kts 289°
2026-04-21 01:00 37.55708 -122.22229 2449 ft 189 kts 290°
2026-04-21 01:00 37.56321 -122.23690 2192 ft 188 kts 290°
2026-04-21 01:00 37.56931 -122.25145 1928 ft 188 kts 290°
2026-04-21 01:00 37.57514 -122.26527 1696 ft 169 kts 290°
2026-04-21 01:01 37.58033 -122.27770 1488 ft 150 kts 291°
2026-04-21 01:01 37.58500 -122.28887 1275 ft 140 kts 291°
2026-04-21 01:01 37.58950 -122.29958 1091 ft 138 kts 292°
2026-04-21 01:01 37.59398 -122.31028 874 ft 137 kts 291°
2026-04-21 01:02 37.59852 -122.32113 723 ft 143 kts 291°
2026-04-21 01:02 37.60308 -122.33218 520 ft 141 kts 294°
2026-04-21 01:02 37.60759 -122.34302 349 ft 139 kts 292°
2026-04-21 01:02 37.61221 -122.35398 144 ft 146 kts 294°
2026-04-21 01:03 37.61686 -122.36509 28 ft 135 kts 298°
2026-04-21 01:03 37.62069 -122.37427 20 ft 99 kts 298°
2026-04-21 01:03 37.62314 -122.38012 20 ft 57 kts 296°
2026-04-21 01:03 37.62380 -122.38217 20 ft 8 kts 240°
2026-04-21 01:04 37.62321 -122.38244 22 ft 13 kts 195°
2026-04-21 01:04 37.62239 -122.38288 20 ft 13 kts 205°
2026-04-21 01:04 37.62156 -122.38341 20 ft 14 kts 206°
2026-04-21 01:04 37.62083 -122.38386 20 ft 11 kts 205°
2026-04-21 01:05 37.62038 -122.38379 20 ft 6 kts 131°
2026-04-21 01:05 37.62019 -122.38372 20 ft 3 kts 181°
2026-04-21 01:05 37.62001 -122.38381 21 ft 3 kts 216°
2026-04-21 01:05 37.61981 -122.38401 20 ft 3 kts 219°
2026-04-21 01:06 37.61976 -122.38406 21 ft 0 kts 218°